Terminal Aerodrome Forecast
Issued by NWS

Home | Current Version | Previous Version | Text Only | Print | Product List | Glossary On
Versions: 1 2 3 4 5 6 7 8 9 10 11 12 13 14 15 16 17 18 19 20 21 22 23 24 25 26 27 28
000
FTUS46 KSEW 200900 AAA
TAFSEA
TAF AMD
KSEA 200903Z 2009/2112 02010KT P6SM SKC
     FM201200 02008KT P6SM VCFG FEW003
     FM201700 35012KT P6SM SKC
     FM210300 02008KT P6SM SKC=

USA.gov is the U.S. government's official web portal to all federal, state and local government web resources and services.